Wind_Speed
12 13 13 13 13 14 15 17 17 17 17 16 14 13 13 13 13 14 13 13 16 17 16 16 16 17 17 17 17 16 13 9 5 7 9 12 11 7 6 4 5 6 7 8 6 4 1 0 1 2 4 5 7 7 6 7 6 4 3 5 3 3 3 5 6 6 6 3 9 14 10 6 6 7 11 8 7 10 9 8 8 8 9 11 11 11 15 15
12 13 13 12 12 13 14 15 17 18 17 16 15 14 11 11 12 13 12 14 16 15 14 14 14 14 14 15 15 14 14 12 10 13 14 10 6 5 3 1 4 5 6 6 5 2 1 1 3 3 5 7 8 6 5 7 9 5 3 4 2 5 3 4 8 8 6 7 11 12 12 8 8 13 14 5 5 9 8 7 8 9 11 12 14 16 17 16
11 12 13 12 11 11 12 14 16 16 16 15 15 14 11 9 10 12 13 15 15 14 13 11 10 9 9 10 9 9 10 10 11 15 14 9 6 4 2 0 3 3 4 5 4 2 2 5 6 5 7 10 9 8 8 8 7 4 4 4 4 6 3 2 9 9 9 12 13 12 11 8 12 15 10 7 6 4 5 8 9 11 14 15 16 18 18 18
10 11 12 11 10 10 11 13 14 14 13 14 14 13 11 10 11 13 14 14 13 11 8 6 3 3 2 3 4 5 6 9 13 15 12 9 8 5 3 1 3 3 3 5 3 3 6 8 6 5 9 10 9 9 8 8 5 3 3 3 6 7 5 4 9 10 11 12 12 15 11 8 14 12 9 12 7 4 11 14 9 10 16 17 18 19 20 20
10 10 11 11 10 10 10 11 11 11 12 13 14 12 11 10 11 13 13 11 10 8 5 2 5 7 3 4 2 1 4 5 9 12 10 9 8 7 7 2 3 4 4 5 4 5 8 8 5 5 9 6 7 7 6 7 8 5 3 6 12 9 5 6 10 10 9 8 11 16 11 10 15 11 13 16 8 4 11 15 9 7 13 14 15 18 20 21
9 9 9 9 8 9 9 11 11 11 12 12 12 11 9 8 9 10 10 10 8 6 3 0 7 11 6 2 3 3 1 3 5 10 9 8 9 9 10 7 2 3 4 5 5 6 8 6 4 5 7 5 5 5 3 4 5 4 2 7 11 8 9 9 9 8 7 6 8 12 10 13 14 8 15 21 14 8 8 13 10 8 13 12 13 16 19 19
9 9 8 7 8 9 10 12 12 12 12 10 8 8 8 5 5 6 9 11 9 7 4 2 10 16 14 10 6 6 11 9 7 9 9 9 9 9 10 9 6 1 3 5 5 6 8 5 6 10 8 4 4 5 6 7 8 8 3 5 6 8 12 11 10 9 6 5 4 8 10 12 12 7 13 21 19 13 9 14 12 11 15 14 14 16 17 17
8 9 8 7 8 10 11 12 11 10 10 8 7 7 6 4 4 5 7 9 9 7 6 5 4 7 9 8 8 12 15 11 8 9 9 9 9 9 7 6 6 4 3 5 5 7 8 7 12 11 6 3 5 6 8 11 9 6 3 5 7 9 12 11 10 9 6 5 5 7 7 9 10 6 10 18 18 13 12 14 12 14 16 17 17 17 17 17
7 9 9 8 9 11 11 11 10 9 8 7 8 8 7 5 7 9 10 10 9 8 6 3 2 3 1 1 3 8 11 9 7 9 8 8 9 8 4 3 6 4 3 6 6 8 7 9 10 6 5 6 9 7 5 6 3 3 5 7 9 10 11 11 9 7 6 6 7 5 2 6 7 3 7 14 16 14 13 14 14 15 18 19 18 18 18 17
8 9 9 9 10 12 11 10 9 8 8 8 8 9 9 8 10 12 10 8 7 6 3 4 4 4 4 4 1 5 6 6 6 7 8 7 7 5 3 7 9 5 3 5 6 7 6 9 9 9 11 9 8 6 5 4 3 8 10 9 11 11 8 6 5 7 6 5 6 3 2 6 5 1 6 13 16 15 15 16 16 18 19 19 20 20 20 18
8 9 9 10 12 12 11 10 9 9 10 10 9 10 10 11 11 10 6 4 4 3 2 2 3 7 4 3 9 8 5 5 5 5 7 5 3 3 6 10 10 9 5 5 8 9 10 14 14 10 8 8 7 8 9 7 8 14 15 10 7 4 3 2 4 7 4 2 6 4 3 4 3 1 6 12 17 16 17 18 19 20 21 21 21 21 21 20
9 9 9 11 12 12 11 11 10 11 10 10 10 9 10 10 10 8 6 5 4 5 7 9 7 7 5 8 14 11 6 5 5 6 6 4 4 5 8 10 12 13 9 9 13 14 14 13 7 5 6 8 5 5 7 8 11 14 11 6 4 6 1 2 3 8 5 2 5 2 1 3 5 7 6 9 17 18 18 20 21 22 22 22 22 22 22 20
9 9 9 12 12 11 11 12 11 10 9 9 9 8 8 8 10 10 7 4 3 3 5 7 2 4 1 8 12 9 7 6 5 6 6 4 6 6 9 11 12 14 11 12 13 10 10 5 2 8 13 8 4 5 7 9 11 7 5 4 2 7 2 3 3 4 4 2 4 2 3 5 6 12 10 8 18 20 21 23 23 24 24 24 24 24 24 21
9 9 10 12 12 9 9 11 10 7 6 7 7 6 5 6 11 11 5 2 1 2 4 4 0 2 4 8 8 7 6 5 5 7 7 6 7 8 10 10 10 12 12 13 13 9 7 4 5 13 15 10 8 9 6 6 6 2 3 2 2 3 4 5 5 0 2 2 6 3 3 7 7 12 12 12 19 22 24 26 26 26 26 26 26 26 25 22
8 8 9 11 11 9 8 10 8 5 4 6 7 6 4 6 11 9 3 1 1 2 4 3 3 4 8 9 6 6 5 3 5 8 7 7 7 8 9 9 10 12 12 13 14 11 9 8 10 12 9 8 9 5 3 5 4 3 2 3 3 0 5 7 4 2 4 2 8 3 2 7 7 8 12 16 21 25 26 27 27 28 28 28 27 27 27 24
7 6 8 10 10 9 9 9 7 5 5 5 6 6 5 5 9 10 5 2 2 3 3 4 4 5 7 7 4 4 4 3 6 7 7 5 3 2 4 6 7 8 10 12 12 11 10 9 12 15 9 6 5 4 4 4 4 4 2 2 3 1 4 6 2 2 4 1 5 4 3 6 5 5 10 17 22 26 27 27 28 29 30 29 29 28 28 26
8 7 9 10 10 10 10 9 8 7 6 5 5 5 5 5 6 8 5 3 4 4 4 5 6 7 6 4 3 5 4 4 5 7 6 2 1 1 2 1 5 6 6 7 7 7 7 7 9 10 11 7 3 4 3 3 3 3 3 1 3 3 3 5 4 2 4 2 2 3 5 9 9 7 10 19 24 27 28 29 30 30 31 31 30 30 29 29
9 9 11 11 10 10 9 9 8 7 6 5 4 4 6 5 5 5 3 3 3 1 3 2 3 4 4 5 5 6 4 2 4 6 5 2 1 1 2 2 1 2 2 2 3 5 6 7 6 3 6 6 5 6 3 1 1 3 3 2 3 3 3 5 5 3 5 3 3 4 7 11 11 9 12 20 24 28 30 31 30 31 32 31 31 32 31 31
10 10 11 11 10 9 8 8 7 5 5 4 3 4 6 6 5 3 2 2 1 1 0 3 5 4 2 5 5 6 5 2 3 5 5 3 2 1 2 1 1 1 1 2 6 9 7 6 6 4 3 4 3 4 4 4 5 5 4 3 4 5 5 6 7 3 4 4 7 6 8 10 11 8 10 18 25 29 30 29 29 30 31 32 32 34 33 33
10 10 10 10 9 7 5 5 5 4 5 4 5 4 5 5 2 1 3 5 7 8 5 6 10 8 4 4 2 3 5 3 1 3 6 5 4 2 2 2 3 5 5 2 4 7 6 5 4 1 3 5 5 4 4 2 4 4 3 3 5 5 6 6 6 5 4 4 7 6 7 11 13 11 11 17 21 24 26 26 28 31 31 33 34 35 36 35
13 12 10 9 8 7 5 5 6 7 6 6 5 3 3 2 0 2 7 11 11 10 7 7 10 9 8 8 3 0 0 3 5 0 5 6 6 3 2 1 3 6 6 2 1 4 5 6 1 4 6 3 3 4 3 3 3 3 3 2 4 4 6 7 4 4 5 5 5 5 8 13 13 12 12 12 15 20 28 28 29 33 32 33 35 36 38 36
15 12 9 9 9 9 8 6 5 3 3 4 4 3 3 2 2 5 8 8 8 8 7 6 7 7 8 9 6 1 2 1 5 5 1 5 6 3 2 7 6 3 4 3 2 4 6 3 5 6 5 6 4 3 4 4 5 3 1 0 4 3 5 7 3 2 3 3 6 7 10 14 12 11 10 13 17 21 28 31 31 32 31 33 35 36 37 36
14 11 10 9 9 9 7 4 2 2 4 7 6 5 3 4 7 8 8 7 5 5 6 5 5 5 6 7 7 3 1 2 5 8 6 2 5 4 5 7 5 2 5 4 3 3 3 2 5 2 6 7 2 4 6 5 3 1 1 1 4 3 1 4 3 3 3 3 5 8 11 11 7 5 5 10 18 19 20 24 28 30 31 34 35 34 35 36
12 10 11 11 10 9 6 5 4 6 6 7 7 7 7 8 9 6 5 4 2 2 3 4 5 5 4 5 5 4 5 7 7 9 9 5 5 6 5 5 5 4 4 4 6 6 2 2 2 5 4 4 1 4 6 5 3 2 4 4 4 4 3 5 5 6 6 2 3 5 8 7 5 5 5 5 9 15 17 18 24 29 33 35 34 35 36 37
10 10 12 11 10 9 7 6 5 8 11 11 9 8 6 4 3 0 2 3 0 1 1 1 4 4 2 4 3 1 4 6 9 10 9 7 4 3 4 4 4 2 3 1 7 6 2 1 1 3 5 5 3 1 2 3 3 4 4 6 6 5 5 6 5 6 5 3 2 3 5 6 5 4 6 4 2 9 12 15 24 29 30 32 34 37 38 38
9 10 11 10 9 8 5 5 6 7 6 4 2 2 2 1 2 4 2 3 1 2 1 1 2 3 3 6 2 3 1 3 6 10 8 6 3 3 4 3 3 3 5 3 4 3 1 2 2 4 4 5 4 0 2 4 2 3 3 5 5 4 5 6 4 2 1 3 3 3 2 5 6 5 6 4 4 8 8 12 23 29 29 32 36 38 38 37
9 9 9 8 8 6 4 4 5 5 3 1 2 3 2 2 3 4 2 4 1 1 1 2 1 2 3 7 3 5 1 3 2 8 8 6 3 2 2 1 2 3 3 3 2 1 2 2 4 4 5 5 4 1 4 5 3 4 3 2 3 5 5 5 3 3 2 3 4 3 3 2 5 6 3 4 5 8 8 10 17 25 31 34 36 37 37 36
8 8 8 7 5 4 3 3 4 4 3 2 2 2 2 2 3 2 3 2 2 0 2 1 3 4 4 6 5 4 2 2 0 6 8 6 3 2 2 2 4 3 2 3 0 2 1 1 1 1 3 3 1 2 5 6 1 6 4 2 6 4 3 3 5 3 1 3 4 4 2 1 6 6 2 3 4 7 10 11 13 21 28 31 33 34 33 33
8 7 6 5 3 2 2 2 4 3 2 2 2 2 2 2 3 2 4 1 1 2 1 1 4 2 4 3 5 5 4 3 2 5 6 5 4 3 4 3 7 7 4 4 3 2 1 1 3 3 2 1 4 4 5 7 4 7 5 3 1 2 2 2 4 3 2 3 3 4 1 1 5 6 3 2 2 6 9 9 11 19 24 25 28 28 28 29
7 6 4 2 0 1 2 3 3 3 3 3 2 3 2 0 2 5 1 3 1 1 0 0 2 3 6 2 3 6 4 3 5 5 4 6 6 6 8 6 6 6 3 5 3 2 1 1 1 2 2 3 3 3 3 6 6 8 7 4 3 4 3 3 2 3 4 3 5 5 1 2 2 7 4 2 4 6 6 7 10 16 21 22 23 24 23 24
5 5 3 2 2 3 4 4 4 4 3 3 2 3 3 1 4 5 2 3 0 1 1 2 2 3 5 2 1 5 4 4 8 6 4 5 6 6 7 4 2 4 4 4 2 3 4 2 2 2 4 3 1 2 1 2 3 4 3 3 4 4 3 3 4 4 3 4 5 3 2 2 2 6 5 5 7 6 6 8 9 13 20 23 22 22 22 22
5 5 4 3 4 5 7 7 6 4 4 3 4 5 3 2 1 2 3 2 1 2 0 1 2 3 4 2 1 3 3 3 7 6 3 3 4 3 2 2 1 3 4 2 2 4 3 3 3 3 3 3 2 2 3 2 4 5 3 3 4 4 4 3 4 2 1 5 3 3 1 0 5 9 10 10 11 10 11 14 16 17 22 25 23 22 22 22
6 5 5 5 6 8 9 9 6 5 5 5 7 4 5 4 3 4 2 2 1 1 1 2 1 1 1 1 1 2 1 1 4 4 1 1 3 1 1 1 3 1 1 2 1 4 3 4 3 1 2 3 4 1 2 2 3 4 2 3 3 2 4 3 4 3 3 5 2 2 2 3 5 7 10 12 13 14 15 18 20 21 24 26 25 23 24 25
7 6 7 7 8 9 9 7 6 6 6 8 7 4 4 1 5 3 2 3 1 2 2 2 2 2 2 1 1 2 0 1 2 2 2 2 3 1 2 2 0 2 3 2 0 0 1 4 3 2 1 2 3 2 3 2 2 1 2 3 3 3 1 3 3 2 4 6 3 1 1 3 3 4 7 10 14 18 18 19 20 22 26 27 26 26 28 30
7 7 8 8 8 8 6 5 7 7 9 9 5 5 3 4 4 2 3 4 1 1 1 2 3 3 3 2 2 0 2 1 1 2 3 1 1 2 2 2 1 2 3 1 1 1 1 5 4 1 1 3 2 2 3 4 2 0 2 3 1 3 4 2 3 4 2 4 3 2 3 5 4 9 11 8 11 16 18 19 19 23 27 25 26 30 31 33
6 6 7 7 6 5 4 5 7 9 11 9 4 2 4 4 2 3 2 1 2 2 1 2 3 3 3 4 3 2 1 1 1 1 1 1 2 3 2 3 2 3 3 2 2 1 1 5 4 3 2 2 2 2 2 2 0 1 1 2 3 3 5 3 1 1 3 1 4 1 4 5 4 8 10 6 7 10 10 12 16 22 25 23 27 32 32 34
4 5 5 4 3 2 3 5 8 10 11 6 3 3 5 2 2 3 1 1 2 3 4 1 1 1 2 2 2 2 1 1 2 1 1 2 2 4 3 2 3 3 3 2 2 2 2 4 4 2 1 2 2 2 3 3 2 2 1 3 2 2 4 3 1 4 4 1 4 1 4 7 4 4 7 6 7 9 8 9 12 18 21 22 28 31 31 32
3 3 2 2 2 3 4 6 8 10 7 3 1 4 3 2 2 2 1 2 2 3 4 2 2 1 2 1 2 2 1 1 2 1 1 2 2 3 4 2 3 2 1 2 1 0 2 2 5 1 1 3 3 2 2 4 2 2 3 3 2 1 1 1 0 2 2 3 6 3 4 5 4 5 6 6 8 9 8 8 8 13 18 22 27 29 30 30
3 3 2 1 3 4 5 7 9 8 4 2 3 3 1 1 1 2 2 1 1 2 2 3 1 1 2 3 2 2 2 3 2 0 1 2 2 3 4 2 2 2 1 3 2 1 2 1 4 2 1 3 3 1 2 1 2 3 2 0 2 2 3 1 1 2 1 3 4 4 3 4 6 7 5 9 11 9 9 8 7 12 19 23 27 29 30 29
4 2 1 3 5 4 6 8 7 5 2 2 4 3 0 1 1 2 3 1 1 2 1 2 2 0 2 3 3 2 1 2 3 2 2 2 2 3 3 2 4 4 1 2 2 0 2 2 3 4 3 2 1 3 5 5 4 3 1 1 1 0 2 0 0 3 3 2 3 3 4 7 9 4 6 12 13 9 9 8 9 15 23 27 29 31 32 30
3 2 2 4 5 5 7 7 3 2 2 1 2 1 1 0 2 3 3 2 0 0 2 3 3 2 3 2 2 2 2 2 2 2 3 2 2 2 1 3 6 6 3 2 1 0 1 3 3 3 3 3 4 3 3 5 6 5 4 4 4 3 3 0 3 1 1 3 4 2 4 11 10 3 5 10 9 8 11 10 11 20 27 31 33 34 33 32
3 2 2 5 6 6 7 4 2 3 3 2 1 1 1 1 2 2 3 2 0 1 2 2 2 2 3 2 2 3 3 1 2 2 3 3 3 1 1 4 6 8 5 2 2 2 2 3 1 4 6 5 4 2 1 3 4 5 3 3 3 4 5 3 3 3 1 1 2 3 1 12 10 3 5 8 8 10 15 14 16 24 31 34 37 38 36 34
3 3 2 5 8 7 5 1 3 2 1 1 1 1 2 2 2 2 2 2 1 1 1 0 1 2 2 1 2 3 3 2 4 3 3 3 1 1 2 5 6 6 4 1 2 2 2 2 0 4 5 3 2 1 1 2 3 2 2 2 4 3 3 5 5 3 2 3 2 2 3 11 9 1 5 8 9 13 19 21 21 27 33 36 37 39 38 37
3 2 2 5 8 7 4 2 1 1 2 0 1 1 1 1 1 2 2 2 2 1 1 0 2 2 1 1 2 2 3 2 2 2 1 2 1 1 3 5 5 5 2 1 2 3 2 1 1 3 7 6 5 4 4 4 1 2 3 2 3 3 6 3 2 2 2 5 7 4 6 11 8 2 3 8 8 12 20 26 25 26 31 36 37 39 40 40
2 2 2 4 7 7 4 2 3 3 1 0 1 1 1 0 1 2 2 2 3 3 1 0 1 2 1 2 2 1 1 1 2 1 1 1 2 0 2 3 4 3 2 2 2 4 2 2 2 1 3 5 6 6 3 2 2 2 1 3 4 5 7 3 1 3 3 5 7 5 8 12 11 11 14 15 12 14 22 30 30 28 31 34 37 40 42 41
2 1 1 2 5 6 3 1 2 3 3 3 0 1 1 1 1 2 1 2 2 3 2 1 2 2 1 1 1 2 2 0 1 1 1 2 2 1 0 2 2 2 2 2 3 3 1 1 3 5 6 6 9 7 1 2 3 6 4 5 6 6 7 4 3 4 5 3 4 10 14 15 19 20 20 18 16 16 20 26 31 32 33 36 38 41 42 43
2 1 1 1 1 2 1 1 1 3 3 4 2 1 2 1 2 1 2 2 2 3 3 1 2 3 2 2 1 2 2 0 1 1 2 3 3 2 1 3 2 1 3 4 2 3 3 2 5 7 9 11 13 11 4 4 7 11 9 6 8 8 7 8 8 8 5 4 7 14 11 10 18 21 19 18 18 16 17 24 31 35 36 39 42 44 44 45
2 2 1 1 1 1 1 1 1 4 4 3 2 2 2 1 1 2 3 1 1 4 3 1 3 5 5 5 3 1 2 1 2 3 1 1 1 3 2 2 2 3 3 3 1 3 4 3 4 4 7 12 13 13 8 6 9 10 10 10 9 9 10 14 18 12 7 5 14 15 10 10 17 21 19 20 21 20 24 33 38 39 40 42 42 44 45 45
1 1 2 2 2 2 2 1 2 5 4 2 1 2 3 4 4 4 2 2 1 3 4 2 6 6 6 5 3 2 3 2 2 4 2 2 1 0 1 2 2 2 3 2 0 2 3 3 3 2 5 11 13 13 8 7 8 7 10 13 10 12 14 17 18 12 8 12 20 20 20 19 20 22 22 27 33 32 34 39 41 40 40 40 40 41 42 44
2 2 3 4 2 3 3 2 4 5 2 1 0 2 3 5 5 3 3 4 1 1 4 4 6 4 4 5 5 4 6 4 1 3 3 3 1 2 3 3 3 2 1 2 0 1 2 3 1 3 3 9 9 7 5 6 6 7 15 17 10 11 13 14 14 9 7 13 19 18 18 17 20 23 23 30 36 31 28 34 39 40 39 37 38 41 42 44
4 3 2 3 2 3 2 1 3 4 1 1 2 2 2 4 6 4 3 5 4 3 5 6 3 1 2 3 6 7 6 3 2 4 4 4 4 4 4 4 5 5 2 2 1 1 3 2 2 5 3 7 3 5 8 9 6 8 17 17 7 7 8 8 7 6 8 10 12 11 10 11 15 17 17 22 25 22 23 30 37 42 44 41 40 43 46 47
4 4 4 3 1 1 2 1 2 2 2 2 3 3 2 3 4 5 2 3 3 2 4 5 2 2 2 2 7 7 6 4 4 5 4 5 6 5 4 5 6 6 5 4 1 1 4 1 1 3 2 7 4 5 9 9 7 6 8 6 3 5 6 6 4 6 10 8 5 6 9 11 13 15 16 19 19 18 23 31 37 42 46 46 46 46 47 48
Wind_Direction
102 103 106 112 116 118 118 117 118 119 119 120 123 126 131 139 143 142 137 126 124 125 119 111 105 101 97 92 87 81 79 74 96 118 84 50 32 16 28 62 112 130 138 136 134 119 99 353 88 93 103 100 71 62 65 50 50 85 99 82 110 159 165 175 184 177 146 149 181 198 210 160 152 151 135 126 128 136 150 163 165 182 185 182 186 185 191 201
105 104 108 116 119 119 120 122 121 120 121 121 119 119 127 140 147 150 146 135 133 129 119 110 105 100 95 92 85 82 75 69 85 84 63 42 26 12 4 77 119 138 150 152 152 116 42 118 112 108 106 90 60 57 68 42 46 70 102 93 156 192 170 166 168 166 143 153 175 192 196 176 175 163 151 143 134 137 134 142 158 173 177 177 180 186 198 205
110 104 106 111 114 116 123 127 125 126 127 123 116 116 125 137 147 152 148 142 139 132 120 110 103 96 95 93 83 79 65 57 62 52 42 35 29 20 342 208 132 145 165 166 163 148 169 139 115 104 100 83 61 68 67 42 38 54 91 92 215 196 147 142 156 157 152 154 158 169 182 181 169 164 166 168 156 175 183 170 175 186 185 182 185 192 202 207
118 108 106 107 109 119 132 134 132 135 133 124 119 121 127 132 144 150 148 145 144 139 126 108 72 25 87 100 73 75 46 40 34 23 23 27 22 18 17 272 188 167 174 173 174 178 167 146 129 105 91 74 56 65 50 30 41 59 84 138 182 159 124 139 145 144 145 146 153 160 164 169 170 177 186 162 140 265 228 203 200 207 198 190 193 197 202 210
127 115 107 108 111 119 138 144 139 136 130 122 120 127 135 138 151 156 153 151 155 153 133 87 351 343 278 222 187 293 352 20 9 11 23 25 21 19 27 35 191 192 192 180 178 167 161 149 141 102 79 59 36 56 46 41 72 62 20 147 147 141 144 151 141 138 139 135 148 155 156 170 175 191 195 177 164 244 232 215 212 216 206 199 198 200 204 212
137 126 109 105 107 111 127 141 142 136 127 117 115 126 138 149 166 176 181 185 183 172 168 100 38 46 63 144 207 258 25 77 3 16 31 26 24 18 20 22 44 193 206 190 192 168 157 155 138 92 69 50 28 57 58 32 95 91 50 140 141 147 147 151 147 130 130 136 153 165 165 163 165 192 201 195 205 241 235 208 206 205 203 204 203 204 208 213
143 137 119 103 103 111 122 133 138 137 126 112 109 124 134 149 173 192 198 200 199 187 184 139 72 63 67 77 90 96 89 80 32 30 37 30 22 14 15 10 13 4 218 205 218 190 180 187 132 106 88 71 57 68 73 75 104 111 132 169 147 142 137 143 144 125 131 149 167 174 169 167 167 181 195 205 226 245 217 194 203 201 197 203 206 211 215 218
143 143 134 113 109 118 127 130 129 131 123 113 120 130 133 138 147 152 156 169 180 174 166 150 85 52 72 84 75 74 66 50 37 46 43 37 28 17 7 354 10 9 236 215 219 195 186 161 132 115 89 76 106 105 92 83 77 83 134 171 137 132 135 135 135 130 141 154 169 167 169 181 179 178 197 215 230 225 202 196 202 198 199 208 212 217 219 222
143 144 138 124 120 126 135 135 129 130 124 121 128 133 137 135 133 129 121 129 145 150 156 172 314 328 37 352 16 54 43 30 40 50 55 56 45 32 5 21 38 21 205 187 180 178 171 148 145 145 129 119 116 113 96 77 44 104 134 147 138 132 132 131 132 139 152 160 168 165 170 183 171 187 224 223 219 204 198 200 202 202 206 212 216 221 225 229
142 142 138 129 126 130 139 142 135 131 125 124 129 137 146 140 131 125 116 120 142 160 193 266 293 321 307 277 110 70 33 36 48 59 78 77 62 57 60 67 58 46 149 168 168 172 170 147 136 131 123 111 104 84 48 65 119 134 123 114 125 134 135 133 140 149 156 172 189 190 179 185 159 137 241 219 205 199 199 201 204 209 215 219 222 225 231 236
141 144 141 134 131 129 134 139 134 127 123 122 125 140 153 152 145 135 130 130 145 159 156 176 108 49 26 139 109 85 49 60 67 83 98 90 75 68 66 64 56 57 90 135 131 131 135 129 121 116 107 99 98 71 54 76 123 130 120 98 88 107 138 158 177 180 178 201 223 208 141 188 183 230 243 211 201 202 203 205 208 214 220 223 227 231 236 240
142 149 145 136 134 128 128 134 130 123 123 121 120 133 151 164 165 156 154 136 123 123 120 135 116 48 50 94 85 77 67 76 84 98 112 102 67 54 59 56 48 54 75 115 118 120 124 126 120 99 107 117 107 63 67 97 121 120 108 100 10 7 30 235 218 199 210 260 222 179 89 247 227 229 237 203 202 204 205 211 214 218 223 226 231 236 239 244
141 147 146 141 138 130 132 137 132 123 125 131 125 121 130 156 166 157 152 143 146 159 151 158 164 322 335 77 68 70 74 81 100 112 121 100 64 51 55 55 50 52 63 95 111 132 135 135 142 106 109 113 90 95 106 104 113 107 62 94 17 3 320 277 330 206 201 214 182 85 314 271 245 237 236 210 205 201 204 214 218 221 226 229 233 238 243 246
140 140 142 146 144 137 140 146 142 130 134 151 149 135 127 148 163 156 137 121 157 185 200 196 322 357 110 90 68 67 72 82 115 126 124 98 73 62 56 59 60 59 62 77 91 123 141 159 136 106 94 89 101 114 97 60 75 72 6 50 42 3 268 299 341 59 87 195 187 74 300 259 277 257 238 219 210 205 210 216 221 225 228 232 236 240 246 248
150 144 143 151 153 146 147 153 151 137 145 163 166 159 151 167 179 178 161 118 84 101 167 153 84 99 101 88 68 64 67 89 134 139 124 103 86 70 58 60 67 70 73 80 90 109 130 149 118 87 72 83 100 100 44 12 26 36 350 315 345 78 270 313 348 104 57 212 196 143 269 262 279 261 230 216 210 210 217 222 224 228 231 235 239 242 247 251
160 157 151 154 155 150 149 152 149 143 149 159 160 154 146 166 187 195 207 196 91 96 143 111 88 104 92 78 67 68 82 116 141 148 134 115 104 61 41 48 60 69 80 89 102 119 130 129 90 64 49 64 76 69 50 16 356 9 37 275 295 292 293 319 345 104 63 141 206 191 247 275 272 254 222 209 210 211 218 227 227 231 234 237 241 244 248 252
159 162 155 154 158 154 150 148 143 144 145 142 144 152 152 152 171 188 207 186 117 97 113 109 86 78 74 74 68 56 71 109 140 162 162 163 238 289 300 24 68 70 77 95 113 126 120 99 85 63 47 49 47 73 63 355 325 324 19 28 282 268 296 314 301 329 40 67 252 230 242 261 263 270 233 211 212 213 219 229 231 234 237 239 243 245 248 252
151 154 149 152 161 155 154 154 146 143 143 142 139 153 164 159 155 167 176 169 163 104 118 118 54 69 62 47 48 35 42 109 153 166 175 197 228 351 298 255 127 44 30 73 68 59 63 66 85 77 35 32 25 64 93 259 237 258 298 318 301 288 270 283 275 311 28 23 266 261 259 264 270 271 239 219 214 215 223 232 235 238 240 242 244 245 249 252
145 148 148 154 160 156 164 167 157 155 153 163 169 155 163 159 148 143 149 184 198 94 157 348 31 108 104 37 51 44 46 108 186 186 190 203 200 46 52 82 81 252 81 61 19 24 42 56 63 58 12 349 347 85 142 207 197 208 235 225 259 286 268 260 261 280 14 324 267 254 256 270 282 272 241 227 217 218 228 234 237 240 241 243 244 247 250 252
145 144 148 151 152 151 166 171 164 167 160 163 165 156 163 157 124 64 91 89 84 85 82 55 68 94 91 54 77 59 52 54 20 216 212 211 193 154 81 80 59 60 63 45 352 17 50 64 60 141 240 257 246 192 164 189 181 176 172 205 243 265 273 274 275 290 5 333 263 245 257 270 276 274 261 239 218 218 230 234 238 240 241 243 245 249 251 255
139 132 132 126 124 119 116 128 128 131 137 144 151 159 181 178 80 96 100 85 82 85 79 73 73 74 65 52 43 265 357 37 36 137 218 212 197 209 347 5 62 46 18 338 347 17 58 80 85 236 221 209 208 180 133 100 113 129 171 230 280 256 269 287 279 286 11 12 280 271 283 274 268 269 263 228 203 218 226 227 236 239 241 244 246 250 254 258
136 125 120 110 112 116 113 114 117 141 191 192 198 233 246 217 161 138 116 92 86 85 76 71 68 66 62 46 38 51 232 2 40 53 141 196 188 204 38 64 76 56 351 356 70 23 44 85 258 254 177 128 98 101 93 92 101 88 137 189 311 277 282 303 293 279 13 5 299 314 306 283 270 265 253 208 202 225 229 228 237 240 241 246 248 252 255 259
137 120 116 112 118 125 124 113 62 312 243 222 225 234 214 166 143 129 113 105 97 85 77 73 69 66 62 44 34 37 82 40 17 27 40 116 137 108 87 77 71 49 6 16 133 99 51 223 243 204 146 143 83 35 54 56 72 99 159 158 294 300 344 297 300 323 316 261 270 304 301 289 294 299 273 221 218 234 239 237 243 244 245 250 254 257 259 261
137 116 117 118 119 119 116 107 71 65 102 134 134 122 125 134 135 121 93 97 102 87 86 68 55 55 65 45 22 33 63 54 20 12 25 51 102 89 87 90 70 61 10 22 98 108 109 204 163 83 95 137 109 16 51 51 355 286 204 192 259 273 224 241 287 323 319 282 241 298 304 295 328 338 305 266 230 242 249 247 250 248 249 253 256 259 259 260
136 120 123 121 115 108 105 107 104 97 100 105 102 96 102 120 137 273 33 75 325 309 88 47 34 38 43 1 345 49 58 49 32 15 19 36 69 102 97 87 73 122 226 3 80 94 105 218 176 84 46 68 111 32 87 109 342 304 230 205 231 266 258 260 306 335 345 341 289 8 350 295 313 305 275 312 310 258 252 249 253 252 252 253 253 257 259 260
136 131 130 124 114 108 116 118 118 123 117 114 85 28 7 315 284 286 357 60 297 272 219 199 31 22 357 354 344 160 35 12 29 16 18 29 28 121 104 54 57 138 200 176 92 115 121 41 76 110 75 58 81 10 209 141 80 309 240 194 213 261 273 271 289 328 344 287 292 58 95 267 304 292 272 320 310 277 267 252 254 256 254 252 252 257 260 261
142 139 135 129 117 109 129 122 109 118 115 94 295 303 301 305 306 295 1 41 313 241 114 191 109 23 17 19 53 157 331 313 12 11 19 27 11 133 136 346 68 101 168 142 55 357 173 56 41 71 75 72 68 338 217 149 109 268 224 120 298 292 273 250 204 189 229 278 319 25 130 240 295 277 283 341 302 288 284 264 258 256 254 254 255 258 260 261
148 146 140 133 120 105 109 89 80 86 66 17 318 275 280 300 298 316 77 71 288 161 63 148 124 71 46 38 52 112 33 339 63 358 8 27 16 93 127 187 150 128 83 114 236 293 161 201 261 121 59 58 152 237 197 157 168 258 246 308 304 292 237 185 150 178 277 1 325 321 93 196 274 271 333 2 308 293 280 267 262 257 256 258 259 260 261 263
152 150 145 138 119 97 77 42 47 48 4 335 316 255 259 282 288 13 83 166 288 96 81 138 139 53 5 32 39 51 49 31 28 352 7 39 22 52 95 110 124 118 58 76 164 227 107 272 226 155 114 237 236 233 184 164 219 282 305 308 320 54 79 104 119 147 38 23 272 260 98 92 276 281 321 11 277 267 266 263 261 261 262 262 261 262 262 263
159 158 155 162 185 307 328 5 12 352 309 291 288 229 211 284 40 57 62 245 292 83 337 102 192 313 353 35 20 19 44 23 0 355 20 53 41 64 102 106 101 108 45 35 98 226 333 358 252 159 187 225 244 262 192 182 251 311 342 339 12 39 49 60 77 93 58 337 260 245 207 100 303 284 260 218 224 226 244 268 269 265 266 265 262 262 261 261
173 176 188 244 274 292 307 326 332 312 269 249 228 180 168 58 69 94 217 242 80 328 355 35 309 356 31 89 19 358 19 6 358 10 22 31 32 44 82 100 54 60 14 6 39 320 338 359 271 259 235 231 16 332 271 207 290 350 17 349 357 355 20 21 350 43 64 282 260 243 261 111 215 267 249 233 244 225 223 256 268 267 270 272 268 263 262 262
203 208 224 257 274 293 298 300 301 274 242 217 185 169 131 55 10 177 250 301 13 303 350 36 331 43 50 61 57 342 342 357 6 36 57 20 32 26 43 160 164 37 354 299 331 330 306 248 286 316 247 205 103 351 328 345 6 33 48 34 25 352 360 4 327 5 223 252 221 188 288 239 227 253 260 261 265 250 232 241 254 262 270 277 275 268 266 265
234 234 243 258 273 287 287 285 277 238 218 185 174 160 90 81 236 222 259 327 2 318 43 59 7 82 73 25 11 322 317 328 351 27 92 84 60 44 294 207 161 70 335 223 307 348 326 293 311 338 246 193 143 130 308 315 2 27 65 83 80 43 9 318 292 323 281 273 243 194 277 286 272 267 245 243 256 259 252 253 259 265 271 275 275 270 268 265
247 250 257 266 275 280 280 273 243 208 193 175 162 121 82 153 234 217 249 264 268 359 26 62 36 42 62 94 280 290 139 297 334 24 9 21 54 34 293 306 85 105 95 104 245 63 7 302 265 177 198 166 158 181 174 148 56 37 160 130 121 133 135 259 252 261 288 297 294 283 247 217 255 277 231 233 263 272 271 267 268 270 271 272 270 266 265 266
252 258 263 272 279 276 272 246 215 191 181 172 128 79 138 225 247 205 233 247 233 14 4 39 66 50 7 315 300 104 154 279 352 51 6 7 164 185 209 260 288 111 118 93 273 151 116 274 260 14 53 139 165 208 137 100 66 314 157 113 118 172 156 190 208 200 269 321 298 261 236 213 233 280 277 281 285 278 274 271 268 269 270 268 264 263 266 268
256 263 268 277 281 271 248 213 194 180 178 166 85 72 199 230 241 183 198 177 135 147 140 12 60 73 319 303 329 19 137 244 334 37 323 271 206 193 192 229 203 132 142 158 222 148 55 282 291 18 22 87 106 192 112 70 123 101 102 195 228 165 123 111 266 323 64 351 280 251 265 281 310 292 295 333 315 288 283 276 265 264 268 266 263 266 270 271
266 272 276 278 273 246 207 194 177 178 184 157 97 212 219 226 192 185 160 87 137 126 116 172 255 178 252 275 297 310 327 284 315 4 250 267 228 187 179 233 200 170 169 155 207 184 141 282 299 47 69 3 63 124 64 55 126 112 169 219 204 95 89 96 306 344 38 261 271 293 273 292 330 304 309 337 303 283 283 277 270 270 269 264 266 273 276 277
282 280 291 282 246 205 183 178 171 178 180 134 155 243 218 183 208 195 162 132 129 87 98 184 241 209 192 230 274 254 192 254 296 346 221 253 256 177 152 183 192 176 176 128 128 183 118 287 301 9 198 317 26 88 24 22 73 112 175 179 100 111 271 46 104 325 356 292 287 302 286 276 237 237 281 293 275 275 281 282 280 273 266 266 273 281 284 283
291 290 312 253 210 186 172 172 176 181 163 116 227 251 212 201 242 154 162 165 110 103 129 210 247 36 172 184 220 229 198 214 226 324 208 223 258 191 152 162 175 157 163 130 136 236 102 147 286 315 304 315 5 111 229 305 52 68 100 46 35 155 183 185 160 165 189 276 288 314 332 278 237 215 228 264 272 278 281 280 272 265 270 276 282 287 289 287
277 285 309 221 196 177 170 172 176 175 145 166 205 215 315 257 218 158 160 156 114 134 194 201 153 127 219 201 209 217 197 205 185 179 225 232 256 227 183 161 152 142 126 100 120 78 81 137 255 302 329 307 261 210 196 180 148 116 143 244 300 156 148 230 291 137 147 188 242 293 306 271 259 215 208 254 272 272 263 264 266 270 279 287 290 291 291 289
252 269 266 208 186 171 168 164 149 111 121 181 206 190 302 229 171 171 167 156 104 135 171 164 156 176 193 201 235 209 168 208 193 191 240 231 233 256 202 163 160 145 114 85 127 223 119 161 216 292 307 245 233 239 193 181 168 156 182 197 188 152 118 54 294 280 124 164 193 210 289 274 268 195 202 246 260 262 258 251 260 276 285 291 294 295 294 291
216 242 248 200 181 172 166 148 39 53 115 150 182 171 188 148 138 160 174 178 23 63 122 132 146 170 172 178 208 181 160 204 201 199 237 220 211 245 166 152 161 151 127 120 237 218 138 118 163 268 262 242 251 284 119 179 152 136 178 186 153 136 127 147 236 252 227 198 184 120 261 270 266 174 190 239 245 260 266 259 261 277 287 292 295 298 297 294
225 233 229 196 182 172 168 170 352 7 73 144 156 145 153 157 143 145 173 197 204 88 66 161 176 192 215 186 156 175 193 204 189 192 227 230 239 297 157 148 157 156 130 94 241 181 130 93 26 274 284 308 318 6 40 37 91 127 231 151 144 162 142 155 180 186 207 210 175 103 255 267 276 202 201 244 260 270 275 273 269 275 286 292 296 299 300 298
235 221 202 189 187 184 187 210 210 260 289 325 83 115 165 193 174 157 190 221 206 166 142 234 200 197 219 99 112 187 207 210 212 213 215 214 232 60 148 157 166 167 162 205 173 154 189 205 75 321 320 333 347 357 345 342 76 211 245 186 168 122 96 112 152 111 266 218 177 177 253 261 277 317 267 272 285 282 282 286 282 278 285 293 298 300 301 300
212 211 199 186 197 206 213 205 159 156 192 130 63 217 196 136 193 197 206 201 191 179 166 284 182 154 110 75 80 233 219 219 269 309 14 264 262 123 148 178 190 188 220 239 157 148 196 219 143 183 293 296 305 314 307 279 247 235 210 197 204 157 141 168 144 129 245 226 167 186 249 265 284 300 298 299 304 299 296 299 299 292 291 296 299 300 301 300
214 217 217 194 206 207 206 209 152 136 152 159 342 295 158 88 276 231 197 183 192 191 188 186 146 122 67 85 127 269 260 263 334 336 311 255 271 331 136 196 209 215 200 173 152 131 103 252 212 203 212 235 260 264 203 72 294 276 256 206 207 202 177 143 108 182 207 174 186 231 250 274 289 289 291 297 299 298 298 301 302 301 300 300 300 300 299 299
242 212 214 171 208 192 110 96 132 118 146 170 183 203 181 228 320 267 212 216 208 196 195 194 172 171 183 179 186 256 252 322 4 238 231 229 250 327 298 204 190 193 165 153 163 118 86 293 245 211 226 249 263 270 309 3 282 272 272 234 205 204 177 167 209 219 147 110 258 254 244 260 277 279 285 292 293 295 297 298 300 302 302 302 302 301 299 299
257 220 218 178 195 177 84 46 125 115 121 149 155 149 165 204 245 213 207 204 193 198 196 282 242 209 191 177 165 203 241 301 264 235 225 236 273 355 341 228 184 185 169 154 181 129 123 258 245 196 249 269 273 278 285 276 260 262 270 257 223 201 187 201 227 223 149 196 258 269 266 261 273 281 286 287 289 294 296 298 300 301 302 303 303 302 300 299
268 198 181 170 185 173 153 192 153 128 113 98 114 155 166 187 220 230 187 118 350 231 192 234 260 235 200 177 150 173 217 226 283 263 202 165 227 34 315 260 200 185 165 134 244 149 145 247 247 163 282 280 275 279 274 257 266 276 268 255 227 209 207 217 235 231 199 235 258 270 277 276 276 279 281 284 288 292 295 298 300 302 304 305 304 302 301 301
257 234 179 156 127 109 115 138 143 129 95 53 184 216 170 177 213 237 175 166 208 231 179 213 258 245 193 176 168 200 214 186 204 261 187 156 225 203 206 222 164 143 148 127 41 140 167 257 265 106 308 282 276 296 298 263 267 282 278 271 241 215 223 233 245 243 225 248 259 269 279 279 273 271 274 280 287 292 296 299 303 305 308 310 307 306 306 305
246 255 216 159 114 96 109 139 136 124 79 219 204 219 191 197 210 199 186 203 199 179 188 202 224 122 118 170 203 236 256 224 221 247 209 202 238 226 218 211 157 139 158 169 123 135 165 269 356 62 342 282 281 351 320 295 284 276 282 286 264 200 215 236 237 209 204 239 263 279 283 273 273 279 281 283 290 297 300 304 308 309 311 312 310 308 307 306
240 249 235 188 115 133 172 139 96 118 231 221 189 187 208 240 203 169 181 258 215 199 228 218 178 108 105 200 226 250 284 275 256 266 250 238 245 243 239 219 174 151 159 160 149 166 153 164 358 52 317 273 294 334 311 313 325 293 276 275 215 191 228 261 258 212 204 216 256 272 264 272 290 303 303 302 305 308 308 310 310 308 309 311 310 307 306 306
Height
1550 1550 1550 1550 1550 1550 1550 1550 1550 1550 1550 1550 1551 1551 1552 1552 1552 1553 1553 1553 1553 1553 1553 1552 1552 1552 1552 1551 1551 1552 1552 1552 1551 1550 1550 1551 1552 1551 1551 1550 1550 1550 1550 1550 1550 1550 1550 1550 1550 1549 1549 1549 1549 1549 1549 1550 1550 1551 1559 1563 1567 1574 1574 1572 1575 1575 1573 1575 1578 1577 1576 1577 1577 1577 1576 1577 1577 1576 1577 1577 1576 1576 1575 1575 1574 1574 1575 1575
1551 1551 1551 1552 1552 1552 1552 1552 1551 1551 1552 1552 1552 1552 1553 1553 1553 1554 1554 1554 1554 1554 1554 1554 1553 1553 1553 1552 1552 1552 1552 1553 1551 1550 1551 1553 1553 1552 1552 1551 1551 1551 1551 1551 1551 1551 1551 1551 1550 1550 1550 1550 1550 1550 1550 1551 1550 1554 1563 1564 1566 1573 1571 1570 1572 1572 1573 1574 1575 1576 1576 1576 1575 1576 1576 1577 1578 1577 1577 1576 1576 1576 1575 1574 1574 1574 1574 1574
1552 1552 1553 1553 1553 1553 1553 1553 1552 1553 1553 1553 1553 1553 1554 1554 1555 1555 1555 1555 1555 1555 1555 1555 1555 1554 1554 1553 1553 1553 1553 1553 1552 1551 1553 1554 1553 1553 1552 1552 1552 1551 1551 1552 1552 1552 1552 1552 1552 1551 1550 1551 1552 1551 1551 1552 1553 1556 1561 1564 1568 1571 1570 1571 1571 1571 1571 1572 1574 1575 1575 1575 1575 1575 1575 1576 1578 1578 1576 1575 1575 1575 1574 1573 1573 1573 1573 1574
1553 1553 1554 1554 1554 1554 1554 1554 1553 1554 1554 1554 1554 1555 1555 1556 1556 1556 1556 1556 1556 1556 1556 1556 1555 1555 1554 1554 1553 1553 1553 1553 1553 1554 1555 1554 1554 1553 1553 1552 1552 1552 1552 1552 1553 1553 1553 1553 1553 1552 1551 1552 1553 1552 1553 1554 1555 1557 1560 1563 1567 1568 1570 1571 1570 1571 1571 1571 1573 1574 1575 1575 1575 1575 1575 1575 1577 1577 1574 1572 1572 1572 1571 1572 1572 1573 1573 1573
1554 1554 1555 1555 1555 1555 1555 1555 1555 1555 1555 1555 1555 1556 1556 1557 1557 1557 1557 1557 1557 1557 1557 1557 1556 1554 1554 1553 1554 1554 1553 1555 1557 1557 1556 1555 1554 1554 1553 1553 1552 1552 1553 1553 1553 1553 1553 1553 1553 1553 1552 1553 1554 1554 1556 1557 1556 1560 1563 1564 1566 1568 1569 1570 1571 1571 1571 1572 1572 1573 1574 1574 1575 1575 1574 1574 1573 1573 1571 1571 1571 1571 1571 1571 1571 1572 1573 1573
1555 1555 1555 1555 1555 1555 1555 1556 1556 1556 1556 1556 1556 1557 1557 1557 1558 1558 1558 1557 1557 1557 1557 1558 1557 1555 1553 1553 1554 1554 1554 1558 1560 1558 1557 1556 1555 1554 1553 1553 1552 1553 1553 1553 1554 1553 1554 1554 1553 1553 1554 1556 1557 1556 1558 1559 1557 1561 1566 1566 1567 1568 1569 1570 1571 1570 1571 1572 1572 1573 1572 1572 1574 1574 1574 1573 1570 1570 1570 1570 1571 1571 1571 1571 1571 1571 1571 1572
1556 1556 1556 1556 1556 1556 1556 1556 1557 1557 1556 1556 1557 1558 1558 1558 1558 1558 1557 1557 1557 1558 1558 1558 1558 1556 1555 1555 1555 1554 1555 1559 1560 1559 1558 1557 1556 1555 1554 1554 1553 1552 1553 1553 1553 1553 1554 1554 1554 1554 1556 1558 1559 1559 1560 1560 1559 1561 1566 1568 1568 1569 1569 1570 1571 1571 1572 1572 1572 1572 1572 1572 1572 1572 1573 1571 1569 1570 1570 1570 1570 1570 1570 1571 1570 1571 1571 1571
1556 1556 1557 1557 1557 1557 1557 1557 1557 1558 1557 1557 1558 1558 1558 1558 1558 1558 1557 1557 1558 1559 1559 1559 1558 1557 1557 1557 1557 1556 1557 1559 1560 1560 1559 1558 1557 1556 1555 1554 1553 1553 1553 1553 1553 1553 1554 1554 1554 1555 1557 1560 1559 1560 1561 1561 1562 1564 1567 1569 1570 1570 1571 1571 1571 1571 1572 1572 1572 1572 1572 1572 1572 1572 1572 1569 1568 1569 1569 1569 1569 1569 1569 1569 1569 1569 1570 1569
1557 1557 1557 1557 1558 1558 1558 1558 1558 1559 1558 1558 1558 1559 1559 1559 1558 1558 1558 1558 1559 1559 1560 1559 1559 1558 1558 1558 1558 1558 1560 1561 1561 1561 1560 1559 1558 1557 1556 1555 1554 1553 1553 1553 1553 1553 1554 1554 1555 1555 1557 1559 1560 1561 1562 1562 1565 1566 1568 1569 1570 1571 1572 1572 1572 1572 1573 1573 1572 1572 1572 1572 1572 1572 1569 1567 1568 1568 1568 1568 1568 1568 1568 1568 1568 1568 1568 1568
1557 1558 1558 1558 1558 1558 1558 1559 1559 1559 1559 1559 1559 1559 1559 1559 1559 1559 1559 1560 1560 1560 1560 1560 1560 1559 1558 1558 1558 1560 1563 1562 1562 1562 1561 1560 1560 1558 1557 1556 1555 1554 1554 1553 1554 1554 1554 1554 1555 1555 1556 1559 1561 1563 1563 1564 1566 1567 1568 1570 1571 1572 1573 1573 1573 1573 1573 1573 1572 1572 1572 1572 1572 1572 1567 1565 1566 1566 1566 1567 1567 1567 1567 1567 1567 1567 1567 1567
1558 1558 1559 1559 1559 1559 1559 1559 1560 1559 1559 1559 1559 1559 1560 1560 1560 1560 1560 1561 1561 1561 1560 1560 1560 1559 1559 1558 1558 1562 1564 1563 1563 1562 1562 1561 1561 1559 1558 1557 1556 1555 1554 1554 1554 1554 1555 1555 1556 1556 1558 1560 1563 1564 1565 1566 1567 1568 1569 1571 1573 1574 1574 1574 1574 1573 1573 1573 1572 1572 1573 1573 1573 1570 1564 1562 1564 1565 1565 1565 1565 1565 1565 1565 1565 1565 1565 1565
1558 1559 1559 1559 1560 1560 1560 1560 1560 1560 1560 1560 1560 1560 1560 1561 1561 1561 1562 1562 1562 1561 1560 1560 1560 1560 1560 1559 1560 1563 1564 1563 1563 1563 1563 1562 1561 1560 1559 1559 1558 1556 1556 1555 1555 1556 1556 1557 1557 1557 1559 1562 1564 1565 1567 1568 1569 1570 1570 1573 1575 1575 1575 1574 1574 1574 1573 1573 1572 1572 1571 1569 1570 1566 1561 1562 1562 1563 1564 1564 1563 1563 1563 1563 1563 1563 1563 1563
1559 1559 1559 1560 1561 1561 1561 1561 1561 1561 1561 1561 1561 1561 1561 1561 1561 1562 1562 1562 1562 1562 1561 1561 1560 1560 1560 1561 1562 1563 1563 1564 1564 1563 1564 1563 1562 1562 1561 1560 1559 1558 1557 1556 1556 1557 1557 1558 1558 1558 1561 1563 1565 1566 1567 1569 1569 1571 1573 1574 1576 1576 1574 1573 1573 1573 1573 1572 1573 1573 1566 1560 1563 1561 1559 1561 1561 1562 1562 1561 1561 1561 1561 1561 1561 1561 1560 1560
1560 1560 1560 1560 1561 1562 1561 1562 1562 1562 1562 1562 1562 1562 1562 1562 1562 1563 1563 1563 1563 1562 1562 1562 1561 1560 1560 1562 1564 1564 1564 1564 1564 1564 1564 1564 1563 1563 1562 1562 1561 1559 1558 1557 1557 1558 1558 1559 1559 1559 1562 1563 1565 1567 1569 1571 1571 1574 1575 1577 1582 1578 1571 1572 1573 1571 1572 1572 1572 1574 1569 1559 1558 1559 1559 1560 1560 1560 1560 1559 1559 1558 1559 1558 1558 1558 1557 1558
1560 1561 1561 1561 1562 1562 1562 1562 1562 1562 1562 1563 1563 1562 1563 1563 1563 1564 1564 1564 1563 1563 1562 1562 1561 1561 1561 1563 1565 1564 1565 1565 1565 1565 1564 1565 1564 1563 1563 1563 1562 1561 1560 1559 1559 1560 1560 1561 1560 1562 1565 1565 1566 1568 1571 1573 1575 1579 1575 1574 1584 1581 1572 1572 1573 1572 1572 1572 1572 1574 1570 1561 1558 1558 1557 1558 1559 1559 1558 1556 1557 1556 1556 1556 1555 1556 1555 1555
1561 1561 1561 1561 1562 1562 1563 1563 1563 1563 1563 1563 1563 1563 1563 1563 1564 1564 1564 1564 1564 1563 1563 1562 1562 1561 1562 1564 1565 1565 1565 1565 1565 1565 1565 1565 1564 1564 1564 1563 1563 1562 1561 1561 1561 1562 1562 1561 1563 1566 1567 1567 1570 1570 1572 1574 1575 1582 1579 1572 1578 1580 1576 1573 1571 1572 1572 1571 1572 1572 1567 1560 1557 1556 1556 1558 1557 1557 1557 1555 1555 1554 1554 1554 1553 1553 1553 1553
1561 1561 1561 1562 1562 1562 1563 1563 1563 1563 1563 1564 1564 1564 1564 1564 1565 1565 1565 1565 1564 1564 1563 1563 1562 1561 1563 1565 1565 1565 1566 1566 1565 1566 1566 1565 1565 1565 1564 1564 1563 1562 1563 1563 1562 1563 1562 1563 1565 1568 1570 1572 1575 1573 1571 1572 1572 1578 1582 1578 1579 1582 1579 1574 1570 1571 1571 1570 1570 1570 1567 1560 1555 1555 1556 1556 1556 1556 1555 1552 1552 1552 1551 1551 1551 1551 1550 1550
1561 1562 1562 1562 1562 1563 1563 1563 1564 1564 1564 1565 1565 1565 1565 1565 1565 1565 1565 1565 1565 1564 1564 1563 1562 1563 1565 1566 1566 1566 1566 1566 1566 1566 1566 1566 1565 1565 1564 1564 1563 1563 1563 1563 1563 1563 1563 1564 1567 1569 1573 1576 1578 1576 1571 1572 1576 1578 1580 1580 1582 1584 1582 1577 1573 1570 1571 1571 1570 1569 1565 1557 1553 1554 1554 1553 1554 1554 1551 1550 1550 1549 1549 1549 1549 1549 1548 1547
1562 1562 1563 1563 1563 1563 1563 1564 1564 1564 1565 1565 1565 1565 1566 1566 1566 1566 1565 1565 1565 1565 1565 1565 1563 1565 1567 1567 1567 1567 1566 1566 1566 1566 1566 1566 1565 1565 1564 1564 1563 1563 1563 1564 1565 1565 1565 1566 1569 1572 1577 1580 1582 1582 1578 1579 1581 1581 1584 1586 1584 1583 1580 1577 1573 1571 1572 1570 1566 1564 1560 1553 1550 1550 1551 1551 1552 1551 1548 1549 1548 1547 1547 1547 1546 1546 1545 1544
1562 1563 1563 1563 1563 1563 1563 1564 1564 1564 1565 1565 1566 1566 1566 1566 1566 1567 1566 1566 1566 1567 1568 1567 1566 1567 1568 1567 1567 1567 1567 1567 1566 1566 1566 1566 1565 1565 1565 1564 1564 1563 1565 1568 1568 1568 1568 1571 1577 1580 1582 1584 1584 1584 1584 1584 1585 1584 1586 1587 1586 1584 1579 1574 1573 1572 1573 1569 1561 1559 1558 1552 1548 1547 1547 1548 1549 1549 1548 1547 1546 1544 1544 1544 1544 1543 1541 1541
1563 1563 1564 1563 1563 1564 1564 1564 1564 1565 1565 1566 1567 1567 1567 1567 1567 1567 1567 1567 1568 1569 1569 1569 1568 1568 1568 1568 1568 1567 1568 1567 1567 1566 1565 1565 1565 1565 1564 1564 1564 1565 1569 1571 1570 1570 1570 1573 1581 1582 1582 1583 1584 1585 1584 1583 1585 1585 1585 1584 1582 1583 1577 1571 1573 1573 1572 1571 1561 1559 1558 1551 1546 1544 1542 1545 1546 1544 1542 1542 1541 1540 1541 1541 1540 1539 1538 1537
1564 1564 1564 1564 1564 1565 1565 1566 1566 1566 1566 1567 1567 1567 1567 1567 1567 1567 1567 1569 1570 1569 1569 1569 1569 1568 1568 1568 1568 1568 1568 1568 1567 1566 1565 1565 1564 1565 1565 1565 1566 1569 1573 1572 1571 1572 1573 1576 1580 1581 1582 1583 1584 1585 1583 1582 1584 1584 1584 1583 1579 1579 1577 1571 1572 1573 1574 1572 1562 1558 1557 1545 1541 1541 1539 1541 1541 1538 1537 1538 1538 1538 1539 1538 1536 1536 1535 1535
1564 1564 1565 1564 1565 1566 1567 1568 1567 1566 1566 1566 1567 1567 1567 1567 1568 1568 1567 1569 1570 1570 1570 1570 1569 1569 1568 1568 1568 1568 1568 1568 1568 1566 1566 1565 1564 1565 1565 1567 1569 1571 1573 1572 1570 1569 1571 1578 1580 1580 1581 1581 1582 1583 1582 1580 1581 1582 1582 1580 1577 1579 1580 1572 1570 1572 1572 1572 1566 1563 1557 1541 1536 1537 1535 1537 1537 1535 1537 1537 1537 1537 1536 1534 1534 1534 1533 1532
1565 1565 1565 1565 1566 1567 1568 1568 1568 1567 1566 1566 1567 1567 1568 1569 1569 1569 1569 1570 1571 1571 1570 1570 1569 1569 1569 1569 1569 1569 1569 1569 1569 1568 1566 1565 1565 1566 1566 1568 1570 1573 1576 1575 1572 1569 1573 1579 1580 1581 1581 1581 1581 1581 1582 1579 1577 1580 1581 1577 1575 1577 1579 1575 1573 1573 1570 1570 1569 1565 1553 1534 1532 1534 1531 1535 1537 1535 1536 1536 1535 1534 1532 1532 1532 1531 1529 1528
1565 1565 1566 1567 1567 1567 1568 1569 1568 1568 1568 1568 1568 1569 1570 1570 1570 1570 1570 1571 1571 1570 1570 1570 1569 1569 1569 1569 1569 1569 1570 1570 1570 1569 1567 1566 1566 1566 1567 1569 1569 1573 1578 1578 1575 1574 1577 1580 1580 1580 1580 1581 1580 1579 1582 1581 1579 1579 1576 1575 1574 1574 1576 1576 1576 1576 1568 1562 1564 1566 1552 1532 1530 1534 1530 1535 1538 1535 1535 1536 1532 1530 1530 1530 1528 1526 1525 1524
1566 1566 1567 1567 1567 1568 1569 1569 1569 1569 1568 1569 1569 1570 1571 1570 1571 1570 1571 1574 1572 1569 1570 1570 1570 1569 1569 1569 1569 1569 1570 1570 1570 1569 1568 1567 1566 1566 1567 1569 1570 1572 1576 1578 1575 1576 1579 1580 1580 1580 1580 1580 1580 1579 1582 1584 1582 1576 1572 1574 1575 1575 1577 1576 1578 1577 1566 1558 1562 1567 1559 1542 1533 1529 1530 1538 1539 1535 1534 1533 1529 1527 1527 1525 1524 1521 1521 1521
1566 1567 1568 1568 1568 1569 1569 1569 1569 1568 1569 1569 1569 1571 1571 1571 1571 1570 1572 1577 1574 1569 1569 1569 1569 1570 1569 1570 1569 1569 1570 1570 1570 1570 1569 1568 1567 1566 1567 1570 1571 1571 1575 1576 1572 1574 1579 1579 1579 1580 1580 1579 1578 1578 1580 1583 1580 1571 1570 1575 1574 1575 1576 1575 1577 1575 1570 1566 1565 1568 1566 1557 1543 1530 1535 1542 1536 1531 1531 1528 1525 1523 1521 1520 1518 1518 1517 1517
1567 1568 1568 1569 1569 1569 1570 1569 1569 1568 1569 1569 1570 1571 1571 1571 1572 1571 1575 1579 1574 1569 1569 1569 1569 1569 1569 1570 1570 1570 1570 1570 1570 1570 1569 1568 1567 1567 1567 1570 1571 1572 1576 1573 1568 1573 1579 1577 1577 1578 1578 1576 1575 1577 1579 1581 1577 1569 1572 1575 1572 1574 1573 1575 1576 1573 1577 1570 1558 1564 1567 1561 1547 1531 1536 1543 1533 1527 1524 1521 1521 1518 1516 1516 1514 1514 1513 1513
1568 1568 1569 1569 1569 1569 1570 1569 1569 1568 1569 1570 1571 1571 1571 1572 1571 1572 1578 1577 1570 1568 1570 1569 1569 1570 1570 1571 1571 1571 1571 1571 1571 1570 1569 1569 1568 1567 1568 1571 1572 1573 1575 1574 1571 1574 1578 1577 1577 1577 1576 1575 1575 1577 1578 1578 1575 1570 1572 1572 1571 1575 1573 1575 1574 1570 1577 1565 1550 1562 1567 1560 1546 1526 1529 1537 1528 1523 1520 1517 1518 1514 1512 1512 1510 1510 1510 1510
1568 1568 1569 1569 1568 1569 1569 1569 1569 1568 1569 1571 1571 1571 1572 1572 1573 1577 1581 1574 1568 1569 1569 1568 1570 1571 1571 1571 1571 1572 1572 1572 1572 1571 1570 1570 1569 1568 1570 1571 1572 1573 1575 1576 1575 1576 1578 1578 1578 1577 1575 1575 1575 1576 1576 1576 1575 1572 1572 1569 1568 1573 1574 1575 1576 1574 1568 1552 1550 1567 1568 1562 1552 1527 1521 1526 1518 1516 1517 1515 1514 1511 1510 1509 1507 1508 1507 1507
1568 1569 1569 1568 1568 1569 1568 1568 1568 1568 1570 1570 1571 1572 1572 1573 1576 1580 1579 1571 1568 1570 1569 1570 1573 1573 1573 1573 1572 1573 1573 1573 1573 1572 1571 1572 1571 1571 1571 1571 1571 1573 1573 1574 1574 1577 1579 1577 1576 1576 1575 1576 1576 1575 1575 1576 1576 1574 1573 1571 1564 1564 1568 1567 1568 1568 1555 1542 1555 1572 1568 1567 1559 1530 1516 1518 1516 1516 1516 1513 1511 1508 1507 1506 1505 1505 1504 1504
1569 1569 1568 1568 1568 1568 1568 1568 1568 1569 1570 1570 1572 1572 1572 1577 1578 1575 1573 1569 1568 1570 1570 1572 1574 1575 1576 1575 1574 1576 1576 1574 1574 1574 1575 1577 1576 1576 1576 1575 1574 1570 1567 1571 1574 1573 1575 1576 1576 1575 1574 1576 1575 1574 1574 1575 1576 1573 1571 1571 1563 1561 1564 1557 1556 1563 1554 1547 1562 1573 1566 1563 1554 1528 1514 1514 1513 1513 1513 1510 1508 1506 1504 1503 1503 1502 1501 1501
1568 1568 1568 1568 1568 1568 1568 1568 1568 1569 1569 1570 1572 1571 1575 1580 1577 1573 1573 1569 1568 1572 1574 1574 1576 1577 1576 1573 1575 1579 1578 1576 1576 1577 1578 1579 1578 1579 1580 1581 1581 1572 1567 1575 1577 1568 1566 1572 1576 1574 1572 1574 1575 1572 1570 1571 1574 1573 1572 1573 1567 1568 1570 1561 1563 1569 1560 1554 1566 1576 1570 1557 1539 1519 1512 1511 1508 1506 1507 1506 1504 1503 1502 1500 1499 1500 1498 1497
1568 1568 1568 1567 1567 1567 1567 1567 1568 1569 1569 1571 1571 1573 1578 1578 1574 1574 1573 1570 1573 1576 1576 1577 1577 1577 1576 1574 1577 1580 1577 1576 1579 1578 1578 1578 1576 1575 1578 1580 1581 1579 1575 1578 1579 1574 1566 1563 1568 1571 1570 1572 1574 1573 1571 1572 1575 1576 1580 1579 1570 1571 1572 1566 1566 1564 1559 1563 1571 1574 1565 1545 1523 1508 1504 1506 1504 1503 1503 1502 1502 1500 1498 1497 1496 1496 1494 1492
1567 1567 1567 1567 1567 1567 1567 1567 1568 1568 1569 1571 1571 1575 1578 1573 1570 1572 1570 1571 1576 1576 1576 1579 1577 1574 1575 1577 1580 1581 1578 1576 1579 1579 1577 1577 1574 1573 1575 1577 1579 1581 1576 1572 1577 1582 1573 1563 1567 1571 1571 1573 1573 1574 1575 1574 1575 1579 1583 1580 1572 1573 1574 1574 1578 1578 1579 1582 1575 1567 1553 1535 1521 1506 1502 1505 1502 1501 1500 1498 1500 1497 1494 1496 1493 1492 1490 1488
1567 1567 1566 1566 1566 1566 1567 1567 1568 1569 1569 1571 1572 1575 1575 1570 1569 1572 1571 1572 1575 1574 1575 1576 1575 1573 1572 1574 1578 1581 1580 1578 1579 1578 1576 1578 1576 1575 1577 1577 1579 1580 1576 1572 1575 1578 1570 1563 1570 1573 1571 1575 1574 1573 1576 1572 1572 1578 1580 1575 1576 1581 1577 1575 1583 1592 1598 1586 1566 1558 1543 1529 1524 1506 1497 1504 1499 1496 1498 1496 1496 1494 1492 1493 1490 1487 1486 1484
1566 1566 1566 1566 1566 1566 1567 1567 1568 1569 1569 1571 1572 1573 1573 1571 1572 1574 1574 1574 1574 1575 1574 1572 1571 1572 1571 1571 1574 1579 1580 1579 1579 1576 1574 1576 1573 1573 1576 1577 1578 1579 1578 1577 1575 1577 1572 1564 1569 1575 1572 1574 1575 1574 1576 1575 1574 1577 1576 1574 1578 1582 1580 1581 1581 1582 1589 1579 1560 1556 1545 1532 1532 1514 1495 1499 1497 1493 1495 1495 1494 1493 1490 1490 1486 1483 1482 1480
1566 1566 1566 1566 1566 1566 1567 1567 1568 1569 1570 1571 1572 1572 1573 1573 1573 1575 1575 1574 1574 1575 1574 1570 1570 1574 1574 1571 1572 1578 1580 1575 1576 1576 1573 1573 1570 1569 1574 1575 1577 1579 1580 1578 1575 1578 1579 1566 1566 1577 1575 1573 1577 1574 1572 1576 1577 1576 1575 1577 1578 1574 1574 1582 1580 1570 1575 1574 1559 1558 1555 1540 1531 1516 1496 1492 1492 1490 1492 1493 1492 1490 1487 1486 1482 1479 1478 1476
1566 1566 1566 1566 1566 1567 1567 1568 1569 1569 1570 1572 1572 1571 1573 1574 1574 1575 1575 1575 1574 1574 1573 1573 1574 1576 1577 1575 1573 1578 1580 1575 1576 1577 1572 1570 1569 1569 1572 1573 1576 1579 1579 1580 1578 1579 1582 1571 1563 1574 1578 1575 1576 1573 1569 1572 1578 1579 1578 1579 1579 1577 1575 1579 1582 1577 1574 1573 1564 1559 1553 1530 1512 1505 1496 1489 1489 1490 1491 1491 1489 1486 1484 1482 1479 1476 1474 1473
1566 1566 1566 1567 1567 1567 1568 1568 1569 1569 1570 1572 1572 1571 1574 1575 1574 1575 1574 1574 1575 1573 1573 1575 1575 1574 1575 1578 1577 1577 1580 1578 1578 1576 1572 1571 1569 1568 1572 1573 1574 1579 1579 1580 1581 1579 1583 1577 1566 1570 1579 1575 1568 1567 1564 1564 1571 1576 1577 1578 1577 1580 1582 1580 1582 1585 1577 1572 1572 1566 1551 1523 1500 1495 1494 1490 1489 1489 1489 1489 1486 1483 1480 1478 1476 1473 1470 1469
1566 1567 1567 1567 1567 1567 1568 1568 1570 1571 1571 1572 1574 1574 1575 1574 1573 1575 1574 1574 1575 1574 1574 1575 1575 1574 1574 1576 1576 1576 1578 1578 1578 1576 1572 1572 1568 1566 1572 1574 1573 1578 1578 1579 1581 1579 1580 1580 1572 1569 1570 1564 1559 1564 1567 1564 1566 1567 1567 1570 1570 1572 1577 1574 1574 1584 1584 1576 1573 1570 1557 1523 1492 1488 1492 1490 1488 1487 1488 1487 1483 1480 1477 1474 1472 1469 1467 1465
1566 1567 1567 1566 1567 1567 1568 1569 1572 1573 1572 1571 1573 1574 1574 1573 1573 1574 1574 1574 1575 1574 1575 1575 1575 1576 1575 1574 1575 1577 1577 1575 1577 1576 1571 1570 1570 1568 1572 1575 1574 1576 1576 1578 1581 1580 1580 1582 1579 1570 1562 1558 1561 1566 1568 1566 1567 1568 1565 1568 1570 1569 1570 1566 1564 1573 1581 1580 1578 1584 1572 1523 1483 1484 1491 1486 1487 1487 1484 1484 1481 1477 1473 1471 1468 1465 1463 1461
1566 1566 1566 1566 1567 1567 1568 1570 1572 1573 1573 1573 1573 1574 1573 1573 1573 1574 1574 1574 1575 1574 1575 1575 1575 1575 1574 1575 1576 1577 1575 1572 1572 1572 1570 1570 1572 1573 1574 1575 1575 1576 1576 1578 1580 1580 1580 1580 1577 1568 1559 1559 1565 1569 1569 1568 1568 1567 1566 1569 1571 1567 1565 1565 1567 1570 1572 1571 1571 1580 1567 1514 1478 1484 1489 1484 1487 1486 1482 1481 1478 1474 1470 1467 1464 1461 1459 1457
1566 1566 1566 1566 1567 1567 1568 1568 1568 1570 1573 1574 1574 1573 1573 1573 1573 1573 1574 1574 1574 1575 1574 1574 1575 1574 1574 1576 1576 1575 1575 1571 1568 1570 1571 1571 1573 1574 1575 1575 1575 1576 1576 1577 1578 1577 1576 1576 1574 1567 1557 1553 1555 1558 1561 1565 1566 1564 1565 1568 1568 1567 1571 1571 1574 1577 1570 1558 1558 1563 1546 1505 1481 1485 1486 1484 1486 1483 1479 1477 1474 1471 1468 1463 1461 1458 1455 1453
1566 1566 1566 1566 1567 1567 1566 1567 1566 1568 1572 1574 1572 1572 1572 1573 1573 1573 1573 1573 1574 1574 1574 1574 1574 1574 1575 1577 1575 1576 1577 1572 1569 1571 1573 1573 1574 1575 1575 1575 1576 1577 1576 1577 1578 1577 1576 1577 1574 1567 1561 1556 1549 1546 1550 1556 1562 1563 1564 1567 1565 1567 1569 1564 1567 1574 1566 1557 1559 1551 1525 1494 1483 1485 1484 1482 1484 1479 1475 1472 1470 1468 1464 1460 1458 1454 1450 1449
1566 1566 1566 1566 1566 1566 1566 1567 1566 1566 1570 1570 1569 1571 1573 1572 1572 1573 1573 1573 1573 1574 1574 1574 1574 1575 1575 1576 1574 1574 1576 1575 1574 1573 1572 1572 1573 1575 1576 1575 1576 1577 1577 1578 1578 1578 1580 1580 1576 1568 1563 1558 1548 1546 1554 1561 1559 1556 1557 1561 1563 1564 1565 1564 1566 1564 1555 1557 1556 1536 1515 1502 1493 1489 1485 1482 1482 1479 1473 1469 1466 1464 1461 1458 1455 1451 1448 1445
1565 1565 1566 1565 1565 1565 1565 1566 1566 1565 1567 1567 1566 1569 1572 1572 1573 1573 1572 1573 1573 1573 1574 1574 1574 1573 1573 1574 1573 1572 1574 1577 1575 1574 1573 1572 1574 1576 1576 1576 1577 1577 1578 1578 1578 1579 1580 1576 1575 1573 1567 1559 1553 1552 1560 1564 1559 1552 1551 1555 1558 1562 1565 1564 1558 1547 1544 1552 1541 1517 1514 1517 1501 1488 1486 1483 1479 1477 1472 1468 1464 1461 1458 1456 1452 1448 1445 1441
1565 1564 1566 1565 1564 1564 1565 1565 1566 1566 1566 1567 1567 1569 1571 1571 1571 1570 1570 1572 1573 1573 1573 1572 1572 1572 1571 1572 1571 1570 1573 1574 1572 1571 1572 1573 1575 1576 1575 1576 1578 1576 1578 1579 1578 1580 1580 1574 1574 1575 1568 1563 1561 1558 1560 1562 1558 1553 1552 1552 1553 1558 1561 1556 1546 1540 1543 1543 1525 1507 1512 1515 1500 1488 1485 1481 1478 1476 1472 1467 1463 1459 1456 1453 1450 1446 1441 1437
1565 1564 1565 1565 1564 1565 1565 1565 1566 1566 1566 1567 1568 1569 1569 1569 1568 1568 1570 1572 1572 1573 1573 1569 1568 1570 1571 1572 1571 1569 1570 1568 1566 1568 1571 1572 1574 1575 1572 1572 1575 1577 1578 1578 1579 1580 1578 1574 1576 1578 1572 1563 1558 1557 1558 1558 1555 1552 1550 1548 1549 1551 1552 1548 1540 1539 1543 1538 1523 1513 1514 1511 1499 1489 1484 1479 1478 1477 1472 1467 1462 1457 1454 1450 1446 1442 1438 1435
1564 1563 1563 1564 1564 1565 1566 1566 1566 1566 1567 1568 1567 1567 1569 1568 1567 1568 1570 1569 1568 1571 1573 1569 1567 1569 1571 1572 1571 1568 1567 1566 1565 1567 1570 1570 1572 1573 1570 1567 1570 1577 1578 1578 1580 1581 1577 1574 1576 1579 1572 1560 1554 1555 1555 1554 1555 1553 1544 1537 1540 1544 1546 1545 1542 1542 1544 1538 1526 1522 1523 1514 1496 1486 1484 1480 1477 1476 1472 1466 1459 1454 1452 1449 1444 1439 1436 1432
1563 1562 1562 1563 1564 1566 1566 1566 1567 1566 1566 1567 1566 1566 1568 1567 1567 1567 1567 1567 1567 1568 1570 1569 1568 1570 1572 1573 1571 1568 1567 1569 1568 1568 1568 1568 1567 1568 1567 1565 1568 1574 1577 1579 1580 1579 1578 1576 1576 1577 1569 1555 1552 1555 1552 1551 1554 1548 1535 1527 1532 1539 1540 1538 1538 1539 1537 1531 1525 1526 1524 1507 1488 1481 1481 1479 1476 1475 1471 1465 1458 1451 1447 1446 1443 1438 1433 1429
1562 1562 1562 1562 1563 1566 1566 1566 1567 1566 1564 1565 1565 1565 1566 1566 1567 1567 1565 1566 1568 1568 1569 1569 1569 1570 1570 1570 1569 1568 1567 1568 1567 1567 1567 1566 1566 1565 1565 1565 1567 1569 1573 1579 1579 1579 1580 1575 1572 1577 1568 1551 1551 1556 1554 1550 1542 1530 1525 1525 1526 1531 1532 1529 1529 1529 1527 1524 1521 1517 1506 1492 1483 1482 1480 1475 1473 1472 1469 1464 1459 1451 1445 1442 1439 1435 1431 1426